This is the latest recevied weather packets stored in our database for station/object K4AMF. If no packets are shown the sender has not sent any weather packets the latest 10 day(s).
| Time | Temp. | Humidity | Pressure | Rain* | Wind** | Luminosity | Snow |
|---|---|---|---|---|---|---|---|
| 1778100461 | 33.33° C | 44% | 1015.2 hPa | 0 mm | - | 397 W/m² | - |
| 1778100159 | 32.78° C | 45% | 1015.1 hPa | 0 mm | - | 337 W/m² | - |
| 1778099857 | 32.78° C | 45% | 1015.4 hPa | 0 mm | - | 386 W/m² | - |
| 1778099554 | 33.33° C | 44% | 1015.3 hPa | 0 mm | - | 380 W/m² | - |
| 1778099251 | 33.33° C | 46% | 1015.3 hPa | 0 mm | - | 482 W/m² | - |
| 1778098947 | 33.33° C | 45% | 1015.3 hPa | 0 mm | - | 547 W/m² | - |
| 1778098644 | 33.89° C | 45% | 1015.3 hPa | 0 mm | - | 530 W/m² | - |
| 1778098341 | 33.89° C | 44% | 1015.6 hPa | 0 mm | - | 499 W/m² | - |
| 1778098038 | 32.78° C | 45% | 1015.2 hPa | 0 mm | - | 447 W/m² | - |
| 1778097735 | 33.33° C | 44% | 1015.7 hPa | 0 mm | - | 477 W/m² | - |
| 1778097431 | 33.33° C | 45% | 1015.8 hPa | 0 mm | - | 559 W/m² | - |
| 1778097127 | 32.78° C | 44% | 1015.8 hPa | 0 mm | - | 625 W/m² | - |
| 1778096819 | 32.78° C | 42% | 1016 hPa | 0 mm | - | 507 W/m² | - |
| 1778096515 | 33.33° C | 45% | 1015.8 hPa | 0 mm | - | 528 W/m² | - |
| 1778096213 | 32.78° C | 45% | 1016 hPa | 0 mm | - | 561 W/m² | - |
| 1778095910 | 32.78° C | 44% | 1016 hPa | 0 mm | - | 602 W/m² | - |
| 1778095607 | 32.78° C | 45% | 1016 hPa | 0 mm | - | 666 W/m² | - |
| 1778095303 | 32.78° C | 46% | 1016 hPa | 0 mm | - | 545 W/m² | - |
| 1778095000 | 32.78° C | 46% | 1016.2 hPa | 0 mm | - | 617 W/m² | - |
| 1778094696 | 33.33° C | 44% | 1016.2 hPa | 0 mm | - | 629 W/m² | - |
| 1778094393 | 32.78° C | 45% | 1016.1 hPa | 0 mm | - | 568 W/m² | - |
| 1778094090 | 32.78° C | 45% | 1016.4 hPa | 0 mm | - | 674 W/m² | - |
| 1778093787 | 32.22° C | 48% | 1016.4 hPa | 0 mm | - | 631 W/m² | - |
| 1778093483 | 32.78° C | 47% | 1016.4 hPa | 0 mm | - | 671 W/m² | - |
| 1778093181 | 32.22° C | 48% | 1016.3 hPa | 0 mm | - | 699 W/m² | - |
* Rain latest hour (hover to see other rain measurements)
** Current wind speed in m/s (hover to see current wind gust speed)